owner,sensor,date,latitude,longitude,vertical_datum,wind_speed,wind_to_direction,wind_speed_of_gust,qcFlag 
NDBC,ioos:station:wmo:42020:1,2010-06-01T01:00:00Z,26.9680,-96.6940,5.0,3.6,140.0,,'1111122,1111122,1111122' 
NDBC,ioos:station:wmo:42020:1,2010-06-01T02:00:00Z,26.9680,-96.6940,5.0,3.6,130.0,,'1111122,1111122,1111122' 
NDBC,ioos:station:wmo:42020:1,2010-06-01T03:00:00Z,26.9680,-96.6940,5.0,3.6,130.0,,'1111122,1111122,1111122' 
NDBC,ioos:station:wmo:42020:1,2010-06-01T04:00:00Z,26.9680,-96.6940,5.0,5.7,130.0,,'1111122,1111122,1111122' 
NDBC,ioos:station:wmo:42020:1,2010-06-01T05:00:00Z,26.9680,-96.6940,5.0,5.7,140.0,,'1111122,1111122,1111122' 
NDBC,ioos:station:wmo:42020:1,2010-06-01T06:00:00Z,26.9680,-96.6940,5.0,5.7,140.0,,'1111122,1111122,1111122' 
NDBC,ioos:station:wmo:42020:1,2010-06-01T07:00:00Z,26.9680,-96.6940,5.0,6.7,160.0,,'1111122,1111122,1111122' 
NDBC,ioos:station:wmo:42020:1,2010-06-01T08:00:00Z,26.9680,-96.6940,5.0,4.6,170.0,,'1111122,1111122,1111122' 
NDBC,ioos:station:wmo:42020:1,2010-06-01T09:00:00Z,26.9680,-96.6940,5.0,2.6,170.0,,'1111122,1111122,1111122' 
NDBC,ioos:station:wmo:42020:1,2010-06-01T10:00:00Z,26.9680,-96.6940,5.0,2.6,180.0,,'1111122,1111122,1111122' 
NDBC,ioos:station:wmo:42020:1,2010-06-01T11:00:00Z,26.9680,-96.6940,5.0,1.5,160.0,,'1111122,1111122,1111122' 
NDBC,ioos:station:wmo:42020:1,2010-06-01T12:00:00Z,26.9680,-96.6940,5.0,1.5,170.0,,'1111122,1111122,1111122' 
NDBC,ioos:station:wmo:42020:1,2010-06-01T13:00:00Z,26.9680,-96.6940,5.0,1.5,150.0,,'1111122,1111122,1111122' 
NDBC,ioos:station:wmo:42020:1,2010-06-01T14:00:00Z,26.9680,-96.6940,5.0,1.5,120.0,,'1111122,1111122,1111122' 
NDBC,ioos:station:wmo:42020:1,2010-06-01T15:00:00Z,26.9680,-96.6940,5.0,2.6,130.0,,'1111122,1111122,1111122' 
NDBC,ioos:station:wmo:42020:1,2010-06-01T16:00:00Z,26.9680,-96.6940,5.0,2.6,130.0,,'1111122,1111122,1111122' 
NDBC,ioos:station:wmo:42020:1,2010-06-01T17:00:00Z,26.9680,-96.6940,5.0,1.5,160.0,,'1111122,1111122,1111122' 
NDBC,ioos:station:wmo:42020:1,2010-06-01T18:00:00Z,26.9680,-96.6940,5.0,1.5,150.0,,'1111122,1111122,1111122' 
NDBC,ioos:station:wmo:42020:1,2010-06-01T19:00:00Z,26.9680,-96.6940,5.0,2.6,120.0,,'1111122,1111122,1111122' 
NDBC,ioos:station:wmo:42020:1,2010-06-01T20:00:00Z,26.9680,-96.6940,5.0,4.6,110.0,,'1111122,1111122,1111122' 
NDBC,ioos:station:wmo:42020:1,2010-06-01T21:00:00Z,26.9680,-96.6940,5.0,5.7,110.0,,'1111122,1111122,1111122' 
NDBC,ioos:station:wmo:42020:1,2010-06-01T22:00:00Z,26.9680,-96.6940,5.0,4.6,120.0,,'1111122,1111122,1111122' 
NDBC,ioos:station:wmo:42020:1,2010-06-01T23:00:00Z,26.9680,-96.6940,5.0,6.7,130.0,,'1111122,1111122,1111122' 
NDBC,ioos:station:wmo:42020:1,2010-06-02T00:00:00Z,26.9680,-96.6940,5.0,5.7,130.0,,'1111122,1111122,1111122' 
NDBC,ioos:station:wmo:42020:1,2010-06-02T04:00:00Z,26.9680,-96.6940,5.0,6.7,160.0,,'1111122,1111122,1111122' 
NDBC,ioos:station:wmo:42020:1,2010-06-02T05:00:00Z,26.9680,-96.6940,5.0,6.7,170.0,,'1111122,1111122,1111122' 
NDBC,ioos:station:wmo:42020:1,2010-06-02T06:00:00Z,26.9680,-96.6940,5.0,6.7,170.0,,'1111122,1111122,1111122' 
NDBC,ioos:station:wmo:42020:1,2010-06-02T07:00:00Z,26.9680,-96.6940,5.0,5.7,170.0,,'1111122,1111122,1111122' 
NDBC,ioos:station:wmo:42020:1,2010-06-02T08:00:00Z,26.9680,-96.6940,5.0,5.7,170.0,,'1111122,1111122,1111122' 
NDBC,ioos:station:wmo:42020:1,2010-06-02T09:00:00Z,26.9680,-96.6940,5.0,4.6,180.0,,'1111122,1111122,1111122' 
NDBC,ioos:station:wmo:42020:1,2010-06-02T10:00:00Z,26.9680,-96.6940,5.0,5.7,200.0,,'1111122,1111122,1111122' 
NDBC,ioos:station:wmo:42020:1,2010-06-02T11:00:00Z,26.9680,-96.6940,5.0,4.6,200.0,,'1111122,1111122,1111122' 
NDBC,ioos:station:wmo:42020:1,2010-06-02T12:00:00Z,26.9680,-96.6940,5.0,3.6,180.0,,'1111122,1111122,1111122' 
NDBC,ioos:station:wmo:42020:1,2010-06-02T13:00:00Z,26.9680,-96.6940,5.0,4.6,190.0,,'1111122,1111122,1111122' 
NDBC,ioos:station:wmo:42020:1,2010-06-02T15:00:00Z,26.9680,-96.6940,5.0,2.6,180.0,,'1111122,1111122,1111122' 
NDBC,ioos:station:wmo:42020:1,2010-06-02T17:00:00Z,26.9680,-96.6940,5.0,5.7,160.0,,'1111122,1111122,1111122' 
NDBC,ioos:station:wmo:42020:1,2010-06-02T18:00:00Z,26.9680,-96.6940,5.0,5.7,150.0,,'1111122,1111122,1111122' 
NDBC,ioos:station:wmo:42020:1,2010-06-02T19:00:00Z,26.9680,-96.6940,5.0,5.7,150.0,,'1111122,1111122,1111122' 
NDBC,ioos:station:wmo:42020:1,2010-06-02T20:00:00Z,26.9680,-96.6940,5.0,5.7,150.0,,'1111122,1111122,1111122' 
NDBC,ioos:station:wmo:42020:1,2010-06-02T21:00:00Z,26.9680,-96.6940,5.0,5.7,160.0,,'1111122,1111122,1111122' 
NDBC,ioos:station:wmo:42020:1,2010-06-02T22:00:00Z,26.9680,-96.6940,5.0,5.7,150.0,,'1111122,1111122,1111122' 
NDBC,ioos:station:wmo:42020:1,2010-06-02T23:00:00Z,26.9680,-96.6940,5.0,6.7,150.0,,'1111122,1111122,1111122' 
NDBC,ioos:station:wmo:42020:1,2010-06-03T00:00:00Z,26.9680,-96.6940,5.0,7.7,150.0,,'1111122,1111122,1111122' 
NDBC,ioos:station:wmo:42020:1,2010-06-03T01:00:00Z,26.9680,-96.6940,5.0,7.7,150.0,,'1111122,1111122,1111122' 
NDBC,ioos:station:wmo:42020:1,2010-06-03T02:00:00Z,26.9680,-96.6940,5.0,7.7,160.0,,'1111122,1111122,1111122' 
NDBC,ioos:station:wmo:42020:1,2010-06-03T03:00:00Z,26.9680,-96.6940,5.0,8.7,160.0,,'1111122,1111122,1111122' 
NDBC,ioos:station:wmo:42020:1,2010-06-03T04:00:00Z,26.9680,-96.6940,5.0,8.7,180.0,,'1111122,1111122,1111122' 
NDBC,ioos:station:wmo:42020:1,2010-06-03T05:00:00Z,26.9680,-96.6940,5.0,7.7,180.0,,'1111122,1111122,1111122' 
NDBC,ioos:station:wmo:42020:1,2010-06-03T06:00:00Z,26.9680,-96.6940,5.0,8.7,180.0,,'1111122,1111122,1111122' 
NDBC,ioos:station:wmo:42020:1,2010-06-03T07:00:00Z,26.9680,-96.6940,5.0,13.9,230.0,,'1111122,1111122,1111122' 
NDBC,ioos:station:wmo:42020:1,2010-06-03T14:00:00Z,26.9680,-96.6940,5.0,7.7,330.0,,'1111122,1111122,1111122' 
NDBC,ioos:station:wmo:42020:1,2010-06-03T19:00:00Z,26.9680,-96.6940,5.0,6.7,290.0,,'1111122,1111122,1111122' 
NDBC,ioos:station:wmo:42020:1,2010-06-03T20:00:00Z,26.9680,-96.6940,5.0,3.6,280.0,,'1111122,1111122,1111122' 
NDBC,ioos:station:wmo:42020:1,2010-06-03T23:00:00Z,26.9680,-96.6940,5.0,5.7,230.0,,'1111122,1111122,1111122' 
NDBC,ioos:station:wmo:42020:1,2010-06-04T01:00:00Z,26.9680,-96.6940,5.0,7.7,250.0,,'1111122,1111122,1111122' 
NDBC,ioos:station:wmo:42020:1,2010-06-04T03:00:00Z,26.9680,-96.6940,5.0,8.7,250.0,,'1111122,1111122,1111122' 
NDBC,ioos:station:wmo:42020:1,2010-06-04T05:00:00Z,26.9680,-96.6940,5.0,8.7,290.0,,'1111122,1111122,1111122' 
NDBC,ioos:station:wmo:42020:1,2010-06-04T06:00:00Z,26.9680,-96.6940,5.0,7.7,290.0,,'1111122,1111122,1111122' 
NDBC,ioos:station:wmo:42020:1,2010-06-04T07:00:00Z,26.9680,-96.6940,5.0,4.6,290.0,,'1111122,1111122,1111122' 
NDBC,ioos:station:wmo:42020:1,2010-06-04T08:00:00Z,26.9680,-96.6940,5.0,6.7,290.0,,'1111122,1111122,1111122' 
NDBC,ioos:station:wmo:42020:1,2010-06-04T09:00:00Z,26.9680,-96.6940,5.0,4.6,290.0,,'1111122,1111122,1111122' 
NDBC,ioos:station:wmo:42020:1,2010-06-04T10:00:00Z,26.9680,-96.6940,5.0,4.6,240.0,,'1111122,1111122,1111122' 
NDBC,ioos:station:wmo:42020:1,2010-06-04T11:00:00Z,26.9680,-96.6940,5.0,3.6,250.0,,'1111122,1111122,1111122' 
NDBC,ioos:station:wmo:42020:1,2010-06-04T12:00:00Z,26.9680,-96.6940,5.0,3.6,270.0,,'1111122,1111122,1111122' 
NDBC,ioos:station:wmo:42020:1,2010-06-04T13:00:00Z,26.9680,-96.6940,5.0,4.6,310.0,,'1111122,1111122,1111122' 
NDBC,ioos:station:wmo:42020:1,2010-06-04T14:00:00Z,26.9680,-96.6940,5.0,3.6,310.0,,'1111122,1111122,1111122' 
NDBC,ioos:station:wmo:42020:1,2010-06-04T15:00:00Z,26.9680,-96.6940,5.0,2.6,260.0,,'1111122,1111122,1111122' 
NDBC,ioos:station:wmo:42020:1,2010-06-04T16:00:00Z,26.9680,-96.6940,5.0,3.6,270.0,,'1111122,1111122,1111122' 
NDBC,ioos:station:wmo:42020:1,2010-06-04T17:00:00Z,26.9680,-96.6940,5.0,4.6,280.0,,'1111122,1111122,1111122' 
NDBC,ioos:station:wmo:42020:1,2010-06-04T18:00:00Z,26.9680,-96.6940,5.0,4.6,290.0,,'1111122,1111122,1111122' 
NDBC,ioos:station:wmo:42020:1,2010-06-04T19:00:00Z,26.9680,-96.6940,5.0,4.6,270.0,,'1111122,1111122,1111122' 
NDBC,ioos:station:wmo:42020:1,2010-06-04T20:00:00Z,26.9680,-96.6940,5.0,3.6,310.0,,'1111122,1111122,1111122' 
NDBC,ioos:station:wmo:42020:1,2010-06-04T21:00:00Z,26.9680,-96.6940,5.0,2.6,290.0,,'1111122,1111122,1111122' 
NDBC,ioos:station:wmo:42020:1,2010-06-04T22:00:00Z,26.9680,-96.6940,5.0,0.5,230.0,,'1111122,1111122,1111122' 
NDBC,ioos:station:wmo:42020:1,2010-06-04T23:00:00Z,26.9680,-96.6940,5.0,0.5,310.0,,'1111122,1111122,1111122' 
NDBC,ioos:station:wmo:42020:1,2010-06-05T01:00:00Z,26.9680,-96.6940,5.0,1.5,170.0,,'1111122,1111122,1111122' 
NDBC,ioos:station:wmo:42020:1,2010-06-05T02:00:00Z,26.9680,-96.6940,5.0,4.6,180.0,,'1111122,1111122,1111122' 
NDBC,ioos:station:wmo:42020:1,2010-06-05T03:00:00Z,26.9680,-96.6940,5.0,5.7,170.0,,'1111122,1111122,1111122' 
NDBC,ioos:station:wmo:42020:1,2010-06-05T04:00:00Z,26.9680,-96.6940,5.0,4.6,170.0,,'1111122,1111122,1111122' 
NDBC,ioos:station:wmo:42020:1,2010-06-05T05:00:00Z,26.9680,-96.6940,5.0,6.7,170.0,,'1111122,1111122,1111122' 
NDBC,ioos:station:wmo:42020:1,2010-06-05T06:00:00Z,26.9680,-96.6940,5.0,6.7,180.0,,'1111122,1111122,1111122' 
NDBC,ioos:station:wmo:42020:1,2010-06-05T07:00:00Z,26.9680,-96.6940,5.0,6.7,190.0,,'1111122,1111122,1111122' 
NDBC,ioos:station:wmo:42020:1,2010-06-05T08:00:00Z,26.9680,-96.6940,5.0,6.7,190.0,,'1111122,1111122,1111122' 
NDBC,ioos:station:wmo:42020:1,2010-06-05T09:00:00Z,26.9680,-96.6940,5.0,5.7,190.0,,'1111122,1111122,1111122' 
NDBC,ioos:station:wmo:42020:1,2010-06-05T10:00:00Z,26.9680,-96.6940,5.0,5.7,190.0,,'1111122,1111122,1111122' 
NDBC,ioos:station:wmo:42020:1,2010-06-05T11:00:00Z,26.9680,-96.6940,5.0,5.7,190.0,,'1111122,1111122,1111122' 
NDBC,ioos:station:wmo:42020:1,2010-06-05T12:00:00Z,26.9680,-96.6940,5.0,5.7,200.0,,'1111122,1111122,1111122' 
NDBC,ioos:station:wmo:42020:1,2010-06-05T13:00:00Z,26.9680,-96.6940,5.0,4.6,190.0,,'1111122,1111122,1111122' 
NDBC,ioos:station:wmo:42020:1,2010-06-05T14:00:00Z,26.9680,-96.6940,5.0,4.6,180.0,,'1111122,1111122,1111122' 
NDBC,ioos:station:wmo:42020:1,2010-06-05T15:00:00Z,26.9680,-96.6940,5.0,3.6,180.0,,'1111122,1111122,1111122' 
NDBC,ioos:station:wmo:42020:1,2010-06-05T16:00:00Z,26.9680,-96.6940,5.0,3.6,170.0,,'1111122,1111122,1111122' 
NDBC,ioos:station:wmo:42020:1,2010-06-05T17:00:00Z,26.9680,-96.6940,5.0,3.6,150.0,,'1111122,1111122,1111122' 
NDBC,ioos:station:wmo:42020:1,2010-06-05T18:00:00Z,26.9680,-96.6940,5.0,3.6,140.0,,'1111122,1111122,1111122' 
NDBC,ioos:station:wmo:42020:1,2010-06-05T19:00:00Z,26.9680,-96.6940,5.0,4.6,150.0,,'1111122,1111122,1111122' 
NDBC,ioos:station:wmo:42020:1,2010-06-05T20:00:00Z,26.9680,-96.6940,5.0,5.7,150.0,,'1111122,1111122,1111122' 
NDBC,ioos:station:wmo:42020:1,2010-06-05T21:00:00Z,26.9680,-96.6940,5.0,4.6,150.0,,'1111122,1111122,1111122' 
NDBC,ioos:station:wmo:42020:1,2010-06-05T22:00:00Z,26.9680,-96.6940,5.0,5.7,150.0,,'1111122,1111122,1111122' 
NDBC,ioos:station:wmo:42020:1,2010-06-05T23:00:00Z,26.9680,-96.6940,5.0,5.7,150.0,,'1111122,1111122,1111122' 
NDBC,ioos:station:wmo:42020:1,2010-06-06T03:00:00Z,26.9680,-96.6940,5.0,4.6,150.0,,'1111122,1111122,1111122' 
NDBC,ioos:station:wmo:42020:1,2010-06-06T04:00:00Z,26.9680,-96.6940,5.0,5.7,150.0,,'1111122,1111122,1111122' 
NDBC,ioos:station:wmo:42020:1,2010-06-06T05:00:00Z,26.9680,-96.6940,5.0,5.7,160.0,,'1111122,1111122,1111122' 
NDBC,ioos:station:wmo:42020:1,2010-06-06T06:00:00Z,26.9680,-96.6940,5.0,5.7,160.0,,'1111122,1111122,1111122' 
NDBC,ioos:station:wmo:42020:1,2010-06-06T07:00:00Z,26.9680,-96.6940,5.0,6.7,160.0,,'1111122,1111122,1111122' 
NDBC,ioos:station:wmo:42020:1,2010-06-06T08:00:00Z,26.9680,-96.6940,5.0,5.7,160.0,,'1111122,1111122,1111122' 
NDBC,ioos:station:wmo:42020:1,2010-06-06T09:00:00Z,26.9680,-96.6940,5.0,4.6,150.0,,'1111122,1111122,1111122' 
NDBC,ioos:station:wmo:42020:1,2010-06-06T10:00:00Z,26.9680,-96.6940,5.0,3.6,150.0,,'1111122,1111122,1111122' 
NDBC,ioos:station:wmo:42020:1,2010-06-06T11:00:00Z,26.9680,-96.6940,5.0,3.6,160.0,,'1111122,1111122,1111122' 
NDBC,ioos:station:wmo:42020:1,2010-06-06T12:00:00Z,26.9680,-96.6940,5.0,3.6,140.0,,'1111122,1111122,1111122' 
NDBC,ioos:station:wmo:42020:1,2010-06-06T13:00:00Z,26.9680,-96.6940,5.0,3.6,130.0,,'1111122,1111122,1111122' 
NDBC,ioos:station:wmo:42020:1,2010-06-06T14:00:00Z,26.9680,-96.6940,5.0,4.6,130.0,,'1111122,1111122,1111122' 
NDBC,ioos:station:wmo:42020:1,2010-06-06T15:00:00Z,26.9680,-96.6940,5.0,5.7,130.0,,'1111122,1111122,1111122' 
NDBC,ioos:station:wmo:42020:1,2010-06-06T17:00:00Z,26.9680,-96.6940,5.0,4.6,130.0,,'1111122,1111122,1111122' 
NDBC,ioos:station:wmo:42020:1,2010-06-06T18:00:00Z,26.9680,-96.6940,5.0,4.6,120.0,,'1111122,1111122,1111122' 
NDBC,ioos:station:wmo:42020:1,2010-06-06T19:00:00Z,26.9680,-96.6940,5.0,3.6,120.0,,'1111122,1111122,1111122' 
NDBC,ioos:station:wmo:42020:1,2010-06-06T20:00:00Z,26.9680,-96.6940,5.0,4.6,120.0,,'1111122,1111122,1111122' 
NDBC,ioos:station:wmo:42020:1,2010-06-06T21:00:00Z,26.9680,-96.6940,5.0,4.6,120.0,,'1111122,1111122,1111122' 
NDBC,ioos:station:wmo:42020:1,2010-06-06T22:00:00Z,26.9680,-96.6940,5.0,4.6,110.0,,'1111122,1111122,1111122' 
NDBC,ioos:station:wmo:42020:1,2010-06-06T23:00:00Z,26.9680,-96.6940,5.0,5.7,120.0,,'1111122,1111122,1111122' 
NDBC,ioos:station:wmo:42020:1,2010-06-07T00:00:00Z,26.9680,-96.6940,5.0,5.7,120.0,,'1111122,1111122,1111122' 
NDBC,ioos:station:wmo:42020:1,2010-06-07T03:00:00Z,26.9680,-96.6940,5.0,6.7,140.0,,'1111122,1111122,1111122' 
NDBC,ioos:station:wmo:42020:1,2010-06-07T04:00:00Z,26.9680,-96.6940,5.0,5.7,120.0,,'1111122,1111122,1111122' 
NDBC,ioos:station:wmo:42020:1,2010-06-07T05:00:00Z,26.9680,-96.6940,5.0,3.6,140.0,,'1111122,1111122,1111122' 
NDBC,ioos:station:wmo:42020:1,2010-06-07T06:00:00Z,26.9680,-96.6940,5.0,4.6,140.0,,'1111122,1111122,1111122' 
NDBC,ioos:station:wmo:42020:1,2010-06-07T07:00:00Z,26.9680,-96.6940,5.0,4.6,150.0,,'1111122,1111122,1111122' 
NDBC,ioos:station:wmo:42020:1,2010-06-07T09:00:00Z,26.9680,-96.6940,5.0,1.5,160.0,,'1111122,1111122,1111122' 
NDBC,ioos:station:wmo:42020:1,2010-06-07T10:00:00Z,26.9680,-96.6940,5.0,3.6,140.0,,'1111122,1111122,1111122' 
NDBC,ioos:station:wmo:42020:1,2010-06-07T11:00:00Z,26.9680,-96.6940,5.0,2.6,130.0,,'1111122,1111122,1111122' 
NDBC,ioos:station:wmo:42020:1,2010-06-07T12:00:00Z,26.9680,-96.6940,5.0,2.6,120.0,,'1111122,1111122,1111122' 
NDBC,ioos:station:wmo:42020:1,2010-06-07T13:00:00Z,26.9680,-96.6940,5.0,1.5,80.0,,'1111122,1111122,1111122' 
NDBC,ioos:station:wmo:42020:1,2010-06-07T15:00:00Z,26.9680,-96.6940,5.0,4.6,110.0,,'1111122,1111122,1111122' 
NDBC,ioos:station:wmo:42020:1,2010-06-07T18:00:00Z,26.9680,-96.6940,5.0,2.6,120.0,,'1111122,1111122,1111122' 
NDBC,ioos:station:wmo:42020:1,2010-06-07T19:00:00Z,26.9680,-96.6940,5.0,1.5,100.0,,'1111122,1111122,1111122' 
NDBC,ioos:station:wmo:42020:1,2010-06-08T02:00:00Z,26.9680,-96.6940,5.0,6.7,110.0,,'1111122,1111122,1111122' 
NDBC,ioos:station:wmo:42020:1,2010-06-08T03:00:00Z,26.9680,-96.6940,5.0,6.7,120.0,,'1111122,1111122,1111122' 
NDBC,ioos:station:wmo:42020:1,2010-06-08T04:00:00Z,26.9680,-96.6940,5.0,6.7,110.0,,'1111122,1111122,1111122' 
NDBC,ioos:station:wmo:42020:1,2010-06-08T05:00:00Z,26.9680,-96.6940,5.0,7.7,120.0,,'1111122,1111122,1111122' 
NDBC,ioos:station:wmo:42020:1,2010-06-08T06:00:00Z,26.9680,-96.6940,5.0,7.7,130.0,,'1111122,1111122,1111122' 
NDBC,ioos:station:wmo:42020:1,2010-06-08T07:00:00Z,26.9680,-96.6940,5.0,6.7,150.0,,'1111122,1111122,1111122' 
NDBC,ioos:station:wmo:42020:1,2010-06-08T08:00:00Z,26.9680,-96.6940,5.0,6.7,140.0,,'1111122,1111122,1111122' 
NDBC,ioos:station:wmo:42020:1,2010-06-08T09:00:00Z,26.9680,-96.6940,5.0,7.7,150.0,,'1111122,1111122,1111122' 
NDBC,ioos:station:wmo:42020:1,2010-06-08T10:00:00Z,26.9680,-96.6940,5.0,6.7,160.0,,'1111122,1111122,1111122' 
NDBC,ioos:station:wmo:42020:1,2010-06-08T11:00:00Z,26.9680,-96.6940,5.0,6.7,160.0,,'1111122,1111122,1111122' 
NDBC,ioos:station:wmo:42020:1,2010-06-08T12:00:00Z,26.9680,-96.6940,5.0,5.7,160.0,,'1111122,1111122,1111122' 
NDBC,ioos:station:wmo:42020:1,2010-06-08T13:00:00Z,26.9680,-96.6940,5.0,6.7,150.0,,'1111122,1111122,1111122' 
NDBC,ioos:station:wmo:42020:1,2010-06-08T14:00:00Z,26.9680,-96.6940,5.0,11.8,200.0,,'1111122,1111122,1111122' 
NDBC,ioos:station:wmo:42020:1,2010-06-08T21:00:00Z,26.9680,-96.6940,5.0,3.6,90.0,,'1111122,1111122,1111122' 
NDBC,ioos:station:wmo:42020:1,2010-06-08T22:00:00Z,26.9680,-96.6940,5.0,5.7,90.0,,'1111122,1111122,1111122' 
NDBC,ioos:station:wmo:42020:1,2010-06-08T23:00:00Z,26.9680,-96.6940,5.0,6.7,110.0,,'1111122,1111122,1111122' 
NDBC,ioos:station:wmo:42020:1,2010-06-09T00:00:00Z,26.9680,-96.6940,5.0,8.7,130.0,,'1111122,1111122,1111122' 
NDBC,ioos:station:wmo:42020:1,2010-06-09T01:00:00Z,26.9680,-96.6940,5.0,8.7,130.0,,'1111122,1111122,1111122' 
NDBC,ioos:station:wmo:42020:1,2010-06-09T02:00:00Z,26.9680,-96.6940,5.0,8.7,140.0,,'1111122,1111122,1111122' 
NDBC,ioos:station:wmo:42020:1,2010-06-09T03:00:00Z,26.9680,-96.6940,5.0,8.7,130.0,,'1111122,1111122,1111122' 
NDBC,ioos:station:wmo:42020:1,2010-06-09T04:00:00Z,26.9680,-96.6940,5.0,9.8,130.0,,'1111122,1111122,1111122' 
NDBC,ioos:station:wmo:42020:1,2010-06-09T05:00:00Z,26.9680,-96.6940,5.0,9.8,140.0,,'1111122,1111122,1111122' 
NDBC,ioos:station:wmo:42020:1,2010-06-09T06:00:00Z,26.9680,-96.6940,5.0,8.7,140.0,,'1111122,1111122,1111122' 
NDBC,ioos:station:wmo:42020:1,2010-06-09T07:00:00Z,26.9680,-96.6940,5.0,9.8,160.0,,'1111122,1111122,1111122' 
NDBC,ioos:station:wmo:42020:1,2010-06-09T08:00:00Z,26.9680,-96.6940,5.0,8.7,160.0,,'1111122,1111122,1111122' 
NDBC,ioos:station:wmo:42020:1,2010-06-09T09:00:00Z,26.9680,-96.6940,5.0,8.7,160.0,,'1111122,1111122,1111122' 
NDBC,ioos:station:wmo:42020:1,2010-06-09T10:00:00Z,26.9680,-96.6940,5.0,9.8,160.0,,'1111122,1111122,1111122' 
NDBC,ioos:station:wmo:42020:1,2010-06-09T11:00:00Z,26.9680,-96.6940,5.0,8.7,160.0,,'1111122,1111122,1111122' 
NDBC,ioos:station:wmo:42020:1,2010-06-09T12:00:00Z,26.9680,-96.6940,5.0,7.7,160.0,,'1111122,1111122,1111122' 
NDBC,ioos:station:wmo:42020:1,2010-06-09T13:00:00Z,26.9680,-96.6940,5.0,7.7,160.0,,'1111122,1111122,1111122' 
NDBC,ioos:station:wmo:42020:1,2010-06-09T14:00:00Z,26.9680,-96.6940,5.0,7.7,150.0,,'1111122,1111122,1111122' 
NDBC,ioos:station:wmo:42020:1,2010-06-09T15:00:00Z,26.9680,-96.6940,5.0,7.7,150.0,,'1111122,1111122,1111122' 
NDBC,ioos:station:wmo:42020:1,2010-06-09T16:00:00Z,26.9680,-96.6940,5.0,7.7,160.0,,'1111122,1111122,1111122' 
NDBC,ioos:station:wmo:42020:1,2010-06-09T17:00:00Z,26.9680,-96.6940,5.0,8.7,160.0,,'1111122,1111122,1111122' 
NDBC,ioos:station:wmo:42020:1,2010-06-09T18:00:00Z,26.9680,-96.6940,5.0,9.8,160.0,,'1111122,1111122,1111122' 
NDBC,ioos:station:wmo:42020:1,2010-06-09T19:00:00Z,26.9680,-96.6940,5.0,8.7,160.0,,'1111122,1111122,1111122' 
NDBC,ioos:station:wmo:42020:1,2010-06-09T20:00:00Z,26.9680,-96.6940,5.0,6.7,150.0,,'1111122,1111122,1111122' 
NDBC,ioos:station:wmo:42020:1,2010-06-09T21:00:00Z,26.9680,-96.6940,5.0,4.6,150.0,,'1111122,1111122,1111122' 
NDBC,ioos:station:wmo:42020:1,2010-06-09T22:00:00Z,26.9680,-96.6940,5.0,5.7,140.0,,'1111122,1111122,1111122' 
NDBC,ioos:station:wmo:42020:1,2010-06-09T23:00:00Z,26.9680,-96.6940,5.0,5.7,140.0,,'1111122,1111122,1111122' 
NDBC,ioos:station:wmo:42020:1,2010-06-10T00:00:00Z,26.9680,-96.6940,5.0,5.7,140.0,,'1111122,1111122,1111122' 
NDBC,ioos:station:wmo:42020:1,2010-06-10T01:00:00Z,26.9680,-96.6940,5.0,6.7,150.0,,'1111122,1111122,1111122' 
NDBC,ioos:station:wmo:42020:1,2010-06-10T02:00:00Z,26.9680,-96.6940,5.0,7.7,140.0,,'1111122,1111122,1111122' 
NDBC,ioos:station:wmo:42020:1,2010-06-10T03:00:00Z,26.9680,-96.6940,5.0,7.7,140.0,,'1111122,1111122,1111122' 
NDBC,ioos:station:wmo:42020:1,2010-06-10T04:00:00Z,26.9680,-96.6940,5.0,7.7,150.0,,'1111122,1111122,1111122' 
NDBC,ioos:station:wmo:42020:1,2010-06-10T05:00:00Z,26.9680,-96.6940,5.0,8.7,150.0,,'1111122,1111122,1111122' 
NDBC,ioos:station:wmo:42020:1,2010-06-10T06:00:00Z,26.9680,-96.6940,5.0,9.8,160.0,,'1111122,1111122,1111122' 
NDBC,ioos:station:wmo:42020:1,2010-06-10T07:00:00Z,26.9680,-96.6940,5.0,7.7,160.0,,'1111122,1111122,1111122' 
NDBC,ioos:station:wmo:42020:1,2010-06-10T08:00:00Z,26.9680,-96.6940,5.0,8.7,160.0,,'1111122,1111122,1111122' 
NDBC,ioos:station:wmo:42020:1,2010-06-10T09:00:00Z,26.9680,-96.6940,5.0,7.7,170.0,,'1111122,1111122,1111122' 
NDBC,ioos:station:wmo:42020:1,2010-06-10T10:00:00Z,26.9680,-96.6940,5.0,6.7,160.0,,'1111122,1111122,1111122' 
NDBC,ioos:station:wmo:42020:1,2010-06-10T11:00:00Z,26.9680,-96.6940,5.0,6.7,160.0,,'1111122,1111122,1111122' 
NDBC,ioos:station:wmo:42020:1,2010-06-10T12:00:00Z,26.9680,-96.6940,5.0,7.7,160.0,,'1111122,1111122,1111122' 
NDBC,ioos:station:wmo:42020:1,2010-06-10T13:00:00Z,26.9680,-96.6940,5.0,7.7,150.0,,'1111122,1111122,1111122' 
NDBC,ioos:station:wmo:42020:1,2010-06-10T14:00:00Z,26.9680,-96.6940,5.0,8.7,150.0,,'1111122,1111122,1111122' 
NDBC,ioos:station:wmo:42020:1,2010-06-10T15:00:00Z,26.9680,-96.6940,5.0,7.7,150.0,,'1111122,1111122,1111122' 
NDBC,ioos:station:wmo:42020:1,2010-06-10T16:00:00Z,26.9680,-96.6940,5.0,8.7,150.0,,'1111122,1111122,1111122' 
NDBC,ioos:station:wmo:42020:1,2010-06-10T17:00:00Z,26.9680,-96.6940,5.0,7.7,150.0,,'1111122,1111122,1111122' 
NDBC,ioos:station:wmo:42020:1,2010-06-10T18:00:00Z,26.9680,-96.6940,5.0,7.7,160.0,,'1111122,1111122,1111122' 
NDBC,ioos:station:wmo:42020:1,2010-06-10T19:00:00Z,26.9680,-96.6940,5.0,7.7,160.0,,'1111122,1111122,1111122' 
NDBC,ioos:station:wmo:42020:1,2010-06-10T20:00:00Z,26.9680,-96.6940,5.0,7.7,150.0,,'1111122,1111122,1111122' 
NDBC,ioos:station:wmo:42020:1,2010-06-10T21:00:00Z,26.9680,-96.6940,5.0,7.7,150.0,,'1111122,1111122,1111122' 
NDBC,ioos:station:wmo:42020:1,2010-06-10T22:00:00Z,26.9680,-96.6940,5.0,6.7,150.0,,'1111122,1111122,1111122' 
NDBC,ioos:station:wmo:42020:1,2010-06-10T23:00:00Z,26.9680,-96.6940,5.0,7.7,150.0,,'1111122,1111122,1111122' 
NDBC,ioos:station:wmo:42020:1,2010-06-11T00:00:00Z,26.9680,-96.6940,5.0,7.7,150.0,,'1111122,1111122,1111122' 
NDBC,ioos:station:wmo:42020:1,2010-06-11T01:00:00Z,26.9680,-96.6940,5.0,7.7,140.0,,'1111122,1111122,1111122' 
NDBC,ioos:station:wmo:42020:1,2010-06-11T02:00:00Z,26.9680,-96.6940,5.0,7.7,140.0,,'1111122,1111122,1111122' 
NDBC,ioos:station:wmo:42020:1,2010-06-11T03:00:00Z,26.9680,-96.6940,5.0,7.7,140.0,,'1111122,1111122,1111122' 
NDBC,ioos:station:wmo:42020:1,2010-06-11T04:00:00Z,26.9680,-96.6940,5.0,7.7,140.0,,'1111122,1111122,1111122' 
NDBC,ioos:station:wmo:42020:1,2010-06-11T05:00:00Z,26.9680,-96.6940,5.0,7.7,140.0,,'1111122,1111122,1111122' 
NDBC,ioos:station:wmo:42020:1,2010-06-11T06:00:00Z,26.9680,-96.6940,5.0,8.7,140.0,,'1111122,1111122,1111122' 
NDBC,ioos:station:wmo:42020:1,2010-06-11T07:00:00Z,26.9680,-96.6940,5.0,8.7,150.0,,'1111122,1111122,1111122' 
NDBC,ioos:station:wmo:42020:1,2010-06-11T08:00:00Z,26.9680,-96.6940,5.0,7.7,150.0,,'1111122,1111122,1111122' 
NDBC,ioos:station:wmo:42020:1,2010-06-11T09:00:00Z,26.9680,-96.6940,5.0,8.7,150.0,,'1111122,1111122,1111122' 
NDBC,ioos:station:wmo:42020:1,2010-06-11T10:00:00Z,26.9680,-96.6940,5.0,8.7,160.0,,'1111122,1111122,1111122' 
NDBC,ioos:station:wmo:42020:1,2010-06-11T11:00:00Z,26.9680,-96.6940,5.0,8.7,160.0,,'1111122,1111122,1111122' 
NDBC,ioos:station:wmo:42020:1,2010-06-11T12:00:00Z,26.9680,-96.6940,5.0,8.7,160.0,,'1111122,1111122,1111122' 
NDBC,ioos:station:wmo:42020:1,2010-06-11T13:00:00Z,26.9680,-96.6940,5.0,8.7,160.0,,'1111122,1111122,1111122' 
NDBC,ioos:station:wmo:42020:1,2010-06-11T14:00:00Z,26.9680,-96.6940,5.0,9.8,160.0,,'1111122,1111122,1111122' 
NDBC,ioos:station:wmo:42020:1,2010-06-11T15:00:00Z,26.9680,-96.6940,5.0,9.8,160.0,,'1111122,1111122,1111122' 
NDBC,ioos:station:wmo:42020:1,2010-06-11T16:00:00Z,26.9680,-96.6940,5.0,7.7,160.0,,'1111122,1111122,1111122' 
NDBC,ioos:station:wmo:42020:1,2010-06-11T17:00:00Z,26.9680,-96.6940,5.0,7.7,150.0,,'1111122,1111122,1111122' 
NDBC,ioos:station:wmo:42020:1,2010-06-11T18:00:00Z,26.9680,-96.6940,5.0,8.7,150.0,,'1111122,1111122,1111122' 
NDBC,ioos:station:wmo:42020:1,2010-06-11T19:00:00Z,26.9680,-96.6940,5.0,7.7,150.0,,'1111122,1111122,1111122' 
NDBC,ioos:station:wmo:42020:1,2010-06-11T20:00:00Z,26.9680,-96.6940,5.0,6.7,140.0,,'1111122,1111122,1111122' 